Location: Gourdan-Polignan
(43.0709°N, 0.5748°E)
Time: 20:41:04
(UTC+00:00)

Cosmos 2360 Rocket - Pass Details

Date: 15 May 2026
Orbit: 831 x 845 km, 71.0° (Epoch: 7 June)

Event Time Altitude Azimuth Distance (km) Brightness Sun altitude
Rises 20:02:17 0° 345° (NNW) 3,414 6.2 -8.3°
Reaches altitude 10° 20:05:35 10° 5° (N) 2,475 5.1 -8.8°
Maximum altitude 20:09:23 18° 47° (NE) 1,962 4.0 -9.3°
Drops below altitude 10° 20:13:11 10° 89° (E) 2,465 4.2 -9.9°
Enters shadow 20:14:01 - 96° (E) 2,679 4.3 -10.0°
